Total_Precipitation_Accumulation
0.05 0.06 0.08 0.07 0.08 0.08 0.09 0.12 0.16 0.12 0.04 0.01 0.02 0.03 0.07 0.12 0.13 0.11 0.10 0.12 0.15 0.14 0.15 0.17 0.22 0.31 0.45 0.67 0.98 1.50 1.81 1.48 0.90 0.51 0.32 0.27 0.20 0.11
0.08 0.09 0.10 0.11 0.13 0.14 0.15 0.13 0.13 0.14 0.09 0.02 0.02 0.04 0.08 0.15 0.16 0.13 0.12 0.13 0.12 0.12 0.11 0.10 0.14 0.21 0.32 0.47 0.65 0.94 1.38 1.57 1.35 0.99 0.60 0.43 0.30 0.17
0.10 0.13 0.15 0.18 0.24 0.26 0.28 0.25 0.19 0.16 0.13 0.04 0.01 0.04 0.12 0.19 0.19 0.14 0.14 0.13 0.10 0.11 0.11 0.09 0.09 0.14 0.23 0.34 0.43 0.57 0.87 1.19 1.36 1.38 1.11 0.74 0.42 0.21
0.16 0.19 0.22 0.24 0.28 0.33 0.39 0.39 0.31 0.23 0.19 0.10 0.03 0.04 0.11 0.22 0.25 0.20 0.17 0.15 0.10 0.10 0.11 0.10 0.10 0.12 0.17 0.24 0.31 0.39 0.55 0.81 1.01 1.19 1.28 1.04 0.70 0.43
0.20 0.26 0.30 0.32 0.29 0.34 0.43 0.45 0.40 0.32 0.27 0.19 0.09 0.05 0.09 0.21 0.30 0.28 0.24 0.22 0.17 0.13 0.12 0.11 0.11 0.12 0.14 0.17 0.22 0.28 0.34 0.43 0.60 0.86 1.17 1.21 1.03 0.78
0.14 0.19 0.30 0.42 0.45 0.46 0.44 0.41 0.43 0.40 0.34 0.27 0.17 0.10 0.09 0.18 0.31 0.36 0.31 0.29 0.25 0.20 0.16 0.13 0.12 0.12 0.12 0.12 0.11 0.16 0.26 0.41 0.54 0.70 0.89 1.05 1.07 1.03
0.10 0.15 0.27 0.46 0.55 0.64 0.63 0.49 0.44 0.45 0.44 0.39 0.31 0.21 0.15 0.19 0.28 0.37 0.42 0.38 0.36 0.29 0.20 0.14 0.12 0.09 0.09 0.12 0.15 0.14 0.18 0.25 0.36 0.51 0.66 0.77 0.88 0.96
0.13 0.16 0.24 0.44 0.52 0.54 0.60 0.54 0.50 0.53 0.53 0.49 0.44 0.36 0.27 0.23 0.27 0.36 0.47 0.51 0.46 0.41 0.29 0.19 0.15 0.11 0.07 0.07 0.11 0.12 0.13 0.17 0.24 0.35 0.47 0.57 0.68 0.80
0.14 0.14 0.19 0.32 0.37 0.37 0.39 0.36 0.38 0.46 0.56 0.58 0.56 0.50 0.42 0.34 0.34 0.39 0.44 0.52 0.51 0.57 0.49 0.35 0.23 0.14 0.09 0.10 0.13 0.12 0.12 0.13 0.17 0.24 0.34 0.42 0.50 0.58
0.15 0.13 0.09 0.17 0.25 0.23 0.24 0.29 0.35 0.43 0.57 0.64 0.68 0.63 0.52 0.46 0.45 0.51 0.54 0.50 0.54 0.69 0.65 0.59 0.48 0.27 0.18 0.15 0.16 0.13 0.12 0.12 0.13 0.18 0.26 0.30 0.33 0.39
0.14 0.12 0.07 0.06 0.13 0.10 0.10 0.19 0.22 0.32 0.43 0.52 0.51 0.47 0.42 0.47 0.57 0.65 0.70 0.63 0.63 0.81 0.77 0.68 0.73 0.59 0.46 0.36 0.29 0.21 0.15 0.13 0.13 0.16 0.20 0.22 0.23 0.26
0.09 0.09 0.10 0.07 0.07 0.05 0.04 0.08 0.14 0.21 0.25 0.29 0.31 0.30 0.31 0.36 0.50 0.70 0.91 0.85 0.75 0.86 0.93 0.78 0.81 0.69 0.72 0.70 0.47 0.30 0.21 0.20 0.18 0.17 0.17 0.15 0.13 0.12
0.08 0.10 0.07 0.05 0.03 0.02 0.01 0.03 0.09 0.09 0.10 0.15 0.19 0.22 0.26 0.34 0.48 0.65 0.87 1.00 0.93 0.90 0.97 0.87 0.90 0.65 0.53 0.68 0.63 0.44 0.26 0.23 0.21 0.22 0.20 0.15 0.10 0.06
0.07 0.08 0.04 0.02 0.01 0.00 0.00 0.01 0.01 0.01 0.02 0.05 0.08 0.14 0.21 0.31 0.43 0.57 0.74 0.93 1.03 0.98 0.88 0.80 0.84 0.66 0.35 0.32 0.48 0.51 0.32 0.22 0.18 0.18 0.18 0.20 0.15 0.10
0.14 0.12 0.02 0.00 0.00 0.00 0.00 0.00 0.00 0.00 0.00 0.02 0.05 0.10 0.17 0.27 0.32 0.39 0.49 0.66 0.81 0.86 0.82 0.80 0.79 0.73 0.44 0.21 0.20 0.31 0.31 0.29 0.20 0.16 0.15 0.13 0.09 0.07
0.09 0.05 0.00 0.00 0.00 0.00 0.00 0.00 0.00 0.00 0.00 0.01 0.03 0.05 0.08 0.13 0.20 0.30 0.37 0.46 0.60 0.77 0.86 0.90 0.94 0.91 0.71 0.37 0.17 0.17 0.19 0.25 0.24 0.16 0.13 0.12 0.09 0.06
0.05 0.01 0.00 0.00 0.00 0.00 0.00 0.00 0.00 0.00 0.00 0.00 0.01 0.02 0.05 0.08 0.14 0.23 0.32 0.38 0.48 0.64 0.81 1.00 1.09 1.04 0.98 0.70 0.37 0.21 0.14 0.13 0.16 0.14 0.11 0.10 0.10 0.07
0.01 0.01 0.00 0.00 0.00 0.00 0.00 0.00 0.00 0.00 0.00 0.00 0.00 0.01 0.04 0.08 0.12 0.16 0.24 0.33 0.43 0.55 0.64 0.79 0.94 0.98 1.05 1.07 0.71 0.31 0.16 0.12 0.14 0.14 0.10 0.08 0.09 0.07
0.00 0.00 0.00 0.00 0.00 0.00 0.00 0.00 0.00 0.00 0.00 0.00 0.00 0.01 0.02 0.05 0.08 0.12 0.17 0.25 0.35 0.47 0.56 0.61 0.69 0.76 0.84 1.03 1.09 0.59 0.24 0.15 0.14 0.16 0.15 0.10 0.08 0.06
0.00 0.00 0.00 0.00 0.00 0.00 0.00 0.00 0.00 0.00 0.00 0.00 0.00 0.00 0.01 0.03 0.06 0.09 0.13 0.20 0.28 0.37 0.45 0.51 0.59 0.67 0.65 0.63 0.73 0.78 0.49 0.23 0.13 0.14 0.18 0.17 0.14 0.09
0.00 0.00 0.00 0.00 0.00 0.00 0.00 0.00 0.00 0.00 0.00 0.00 0.00 0.00 0.00 0.01 0.03 0.06 0.09 0.14 0.20 0.27 0.34 0.41 0.51 0.56 0.59 0.51 0.47 0.55 0.57 0.42 0.21 0.13 0.13 0.14 0.14 0.12
0.01 0.01 0.00 0.00 0.00 0.00 0.00 0.00 0.00 0.00 0.00 0.00 0.00 0.00 0.00 0.00 0.01 0.03 0.06 0.09 0.14 0.20 0.27 0.34 0.38 0.44 0.52 0.55 0.56 0.51 0.48 0.47 0.39 0.24 0.13 0.07 0.05 0.05
0.03 0.02 0.01 0.00 0.00 0.00 0.00 0.00 0.00 0.00 0.00 0.00 0.00 0.00 0.00 0.00 0.00 0.01 0.03 0.05 0.08 0.12 0.18 0.25 0.30 0.33 0.42 0.49 0.52 0.48 0.40 0.35 0.30 0.24 0.20 0.12 0.06 0.03